| time (UTC) | temp F | wind direction | speed MPH | gust MPH | rain 1hr in | rain 24hr in | rain mn in | humidity % | barometer mb |
| 20260502233229 | 53 | 101 | 0.0 | 0.0 | 0.00 | 0.35 | 0.35 | 95 | 1011.3 |
| 20260502233147 | 53 | 101 | 0.0 | 0.0 | 0.00 | 0.35 | 0.35 | 94 | 1011.3 |
| 20260502232749 | 53 | 101 | 0.0 | 0.0 | 0.00 | 0.35 | 0.35 | 95 | 1011.3 |
| 20260502232249 | 53 | 101 | 0.0 | 0.0 | 0.00 | 0.35 | 0.35 | 94 | 1011.1 |
| 20260502231143 | 53 | 101 | 0.0 | 0.0 | 0.00 | 0.35 | 0.35 | 94 | 1011.0 |
| 20260502230617 | 53 | 101 | 0.0 | 0.0 | 0.00 | 0.35 | 0.35 | 94 | 1011.0 |
| 20260502225552 | 54 | 101 | 0.0 | 0.0 | 0.00 | 0.35 | 0.35 | 93 | 1011.0 |
| 20260502225021 | 54 | 101 | 0.0 | 0.0 | 0.00 | 0.35 | 0.35 | 92 | 1011.0 |
| 20260502224512 | 54 | 101 | 0.0 | 0.0 | 0.00 | 0.35 | 0.35 | 93 | 1011.1 |
| 20260502224010 | 54 | 101 | 0.0 | 0.0 | 0.00 | 0.35 | 0.35 | 93 | 1011.0 |
| 20260502223431 | 55 | 101 | 0.0 | 0.0 | 0.00 | 0.35 | 0.35 | 92 | 1011.1 |
| 20260502222923 | 55 | 101 | 0.0 | 0.0 | 0.00 | 0.35 | 0.35 | 92 | 1011.1 |
| 20260502222406 | 55 | 101 | 0.0 | 0.0 | 0.00 | 0.35 | 0.35 | 92 | 1011.0 |
| 20260502221908 | 55 | 101 | 0.0 | 0.0 | 0.00 | 0.35 | 0.35 | 91 | 1011.1 |
| 20260502221904 | 55 | 101 | 0.0 | 0.0 | 0.00 | 0.35 | 0.35 | 91 | 1010.9 |
| 20260502220851 | 54 | 101 | 0.0 | 0.0 | 0.00 | 0.35 | 0.35 | 91 | 1010.9 |
| 20260502220339 | 55 | 101 | 0.0 | 0.0 | 0.00 | 0.35 | 0.35 | 92 | 1010.8 |
| 20260502215835 | 55 | 101 | 0.0 | 0.0 | 0.00 | 0.35 | 0.35 | 92 | 1010.8 |
| 20260502215831 | 55 | 101 | 0.0 | 0.0 | 0.00 | 0.35 | 0.35 | 92 | 1010.9 |
| 20260502215435 | 55 | 101 | 0.0 | 0.0 | 0.00 | 0.35 | 0.35 | 92 | 1010.8 |
| 20260502214329 | 54 | 101 | 0.0 | 0.0 | 0.00 | 0.35 | 0.35 | 92 | 1010.7 |
| 20260502214324 | 54 | 101 | 0.0 | 0.0 | 0.00 | 0.35 | 0.35 | 92 | 1010.8 |
| 20260502213323 | 54 | 101 | 0.0 | 1.0 | 0.00 | 0.35 | 0.35 | 92 | 1010.7 |
| 20260502212823 | 54 | 101 | 0.0 | 1.0 | 0.00 | 0.35 | 0.35 | 91 | 1010.6 |
| 20260502212249 | 54 | 89 | 0.0 | 1.0 | 0.00 | 0.35 | 0.35 | 92 | 1010.7 |
| 20260502211749 | 54 | 84 | 0.0 | 1.0 | 0.00 | 0.35 | 0.35 | 91 | 1010.8 |
| 20260502211232 | 55 | 79 | 0.0 | 0.0 | 0.00 | 0.35 | 0.35 | 92 | 1010.8 |
| 20260502210728 | 55 | 79 | 0.0 | 1.0 | 0.00 | 0.35 | 0.35 | 91 | 1010.8 |
| 20260502210225 | 54 | 79 | 0.0 | 2.0 | 0.00 | 0.35 | 0.35 | 91 | 1010.8 |
| 20260502205722 | 54 | 46 | 1.0 | 2.0 | 0.00 | 0.35 | 0.35 | 89 | 1010.8 |
| 20260502205218 | 54 | 86 | 1.0 | 2.0 | 0.00 | 0.35 | 0.35 | 88 | 1010.9 |
| 20260502204657 | 55 | 70 | 0.0 | 2.0 | 0.00 | 0.35 | 0.35 | 90 | 1010.9 |
| 20260502204130 | 55 | 119 | 0.0 | 1.0 | 0.00 | 0.35 | 0.35 | 91 | 1010.9 |
| 20260502203630 | 55 | 119 | 0.0 | 1.0 | 0.00 | 0.35 | 0.35 | 92 | 1010.9 |
| 20260502203128 | 55 | 119 | 0.0 | 1.0 | 0.00 | 0.35 | 0.35 | 91 | 1010.9 |
| 20260502202602 | 55 | 119 | 0.0 | 1.0 | 0.00 | 0.35 | 0.35 | 91 | 1010.9 |
| 20260502202036 | 55 | 55 | 0.0 | 1.0 | 0.00 | 0.35 | 0.35 | 92 | 1010.9 |
| 20260502201529 | 54 | 20 | 0.0 | 3.0 | 0.00 | 0.35 | 0.35 | 91 | 1010.8 |
| 20260502201027 | 54 | 20 | 1.0 | 4.0 | 0.00 | 0.35 | 0.35 | 89 | 1010.9 |
| 20260502201023 | 54 | 304 | 1.0 | 4.0 | 0.00 | 0.35 | 0.35 | 90 | 1010.9 |
| 20260502200022 | 54 | 75 | 0.0 | 4.0 | 0.00 | 0.35 | 0.35 | 89 | 1010.9 |
| 20260502195522 | 54 | 98 | 0.0 | 1.0 | 0.00 | 0.35 | 0.35 | 91 | 1010.9 |
| 20260502195018 | 54 | 116 | 0.0 | 1.0 | 0.00 | 0.35 | 0.35 | 93 | 1011.1 |
| 20260502195006 | 54 | 72 | 0.0 | 1.0 | 0.00 | 0.35 | 0.35 | 92 | 1011.2 |
| 20260502194002 | 54 | 345 | 0.0 | 2.0 | 0.00 | 0.35 | 0.35 | 92 | 1011.2 |
| 20260502193457 | 54 | 57 | 1.0 | 2.0 | 0.00 | 0.36 | 0.35 | 93 | 1011.3 |
| 20260502193047 | 53 | 91 | 0.0 | 2.0 | 0.00 | 0.36 | 0.35 | 93 | 1011.4 |
| 20260502192953 | 53 | 94 | 0.0 | 2.0 | 0.00 | 0.36 | 0.35 | 93 | 1011.3 |
| 20260502192942 | 53 | 103 | 0.0 | 2.0 | 0.00 | 0.36 | 0.35 | 94 | 1011.4 |
| 20260502191438 | 53 | 134 | 1.0 | 4.0 | 0.01 | 0.36 | 0.35 | 95 | 1011.6 |
| 20260502190929 | 53 | 58 | 1.0 | 4.0 | 0.01 | 0.36 | 0.35 | 94 | 1011.5 |
| 20260502190432 | 53 | 31 | 1.0 | 5.0 | 0.01 | 0.36 | 0.35 | 93 | 1011.5 |
| 20260502190428 | 53 | 44 | 1.0 | 4.0 | 0.01 | 0.36 | 0.35 | 94 | 1011.6 |
| 20260502185429 | 53 | 47 | 1.0 | 5.0 | 0.02 | 0.36 | 0.35 | 93 | 1011.6 |
| 20260502184929 | 53 | 79 | 1.0 | 6.0 | 0.02 | 0.36 | 0.35 | 94 | 1011.6 |
| 20260502184428 | 53 | 73 | 1.0 | 6.0 | 0.02 | 0.36 | 0.35 | 93 | 1011.6 |
| 20260502183924 | 53 | 84 | 1.0 | 5.0 | 0.02 | 0.36 | 0.35 | 94 | 1011.6 |
| 20260502183422 | 53 | 51 | 1.0 | 5.0 | 0.02 | 0.36 | 0.35 | 95 | 1011.6 |
| 20260502182923 | 53 | 71 | 1.0 | 5.0 | 0.02 | 0.37 | 0.35 | 95 | 1011.6 |
| 20260502182422 | 53 | 71 | 1.0 | 5.0 | 0.03 | 0.37 | 0.35 | 95 | 1011.8 |
| 20260502181923 | 53 | 59 | 1.0 | 4.0 | 0.02 | 0.37 | 0.34 | 94 | 1011.9 |
| 20260502181418 | 53 | 69 | 1.0 | 4.0 | 0.02 | 0.39 | 0.34 | 95 | 1012.0 |
| 20260502180920 | 52 | 70 | 1.0 | 3.0 | 0.02 | 0.39 | 0.34 | 96 | 1012.0 |
| 20260502180406 | 52 | 76 | 0.0 | 3.0 | 0.03 | 0.39 | 0.34 | 95 | 1011.9 |
| 20260502170322 | 52 | 264 | 1.0 | 5.0 | 0.06 | 0.36 | 0.31 | 96 | 1011.9 |
| 20260502164302 | 52 | 54 | 0.0 | 4.0 | 0.06 | 0.35 | 0.30 | 96 | 1012.4 |
| 20260502163800 | 52 | 70 | 1.0 | 3.0 | 0.06 | 0.34 | 0.29 | 96 | 1012.6 |
| 20260502163300 | 52 | 67 | 1.0 | 4.0 | 0.06 | 0.34 | 0.29 | 96 | 1012.7 |
| 20260502162751 | 52 | 83 | 1.0 | 4.0 | 0.05 | 0.33 | 0.28 | 96 | 1012.9 |
| 20260502162238 | 52 | 53 | 1.0 | 5.0 | 0.04 | 0.32 | 0.28 | 96 | 1013.0 |
| 20260502161734 | 52 | 68 | 1.0 | 5.0 | 0.05 | 0.32 | 0.27 | 96 | 1012.8 |
| 20260502161234 | 52 | 75 | 1.0 | 3.0 | 0.04 | 0.31 | 0.26 | 96 | 1012.8 |
| 20260502160734 | 52 | 335 | 1.0 | 3.0 | 0.03 | 0.30 | 0.26 | 96 | 1012.8 |
| 20260502160234 | 52 | 57 | 1.0 | 4.0 | 0.04 | 0.30 | 0.25 | 95 | 1012.8 |
| 20260502152212 | 53 | 327 | 1.0 | 2.0 | 0.05 | 0.28 | 0.23 | 96 | 1012.7 |
| 20260502151712 | 53 | 51 | 2.0 | 5.0 | 0.04 | 0.27 | 0.22 | 96 | 1012.6 |
| 20260502151205 | 53 | 63 | 2.0 | 5.0 | 0.05 | 0.27 | 0.22 | 96 | 1012.8 |
| 20260502150702 | 53 | 35 | 1.0 | 7.0 | 0.05 | 0.27 | 0.22 | 96 | 1012.8 |
| 20260502150156 | 53 | 75 | 1.0 | 7.0 | 0.04 | 0.26 | 0.21 | 96 | 1013.0 |
| 20260502123410 | 52 | 79 | 1.0 | 3.0 | 0.05 | 0.15 | 0.11 | 95 | 1011.2 |
| 20260502122909 | 52 | 68 | 1.0 | 3.0 | 0.06 | 0.15 | 0.10 | 95 | 1011.0 |
| 20260502122414 | 52 | 75 | 2.0 | 5.0 | 0.05 | 0.14 | 0.09 | 95 | 1011.1 |
| 20260502122410 | 52 | 62 | 2.0 | 4.0 | 0.05 | 0.14 | 0.10 | 95 | 1011.1 |
| 20260502121410 | 52 | 201 | 2.0 | 5.0 | 0.05 | 0.13 | 0.08 | 95 | 1011.1 |
| 20260502120910 | 52 | 53 | 2.0 | 6.0 | 0.05 | 0.13 | 0.08 | 95 | 1011.0 |
| 20260502120410 | 52 | 88 | 2.0 | 6.0 | 0.04 | 0.12 | 0.07 | 95 | 1011.0 |
| 20260502115909 | 52 | 73 | 2.0 | 5.0 | 0.04 | 0.11 | 0.07 | 95 | 1011.0 |
| 20260502115406 | 52 | 311 | 1.0 | 5.0 | 0.04 | 0.11 | 0.06 | 94 | 1011.0 |
| 20260502114904 | 52 | 96 | 1.0 | 4.0 | 0.04 | 0.11 | 0.06 | 94 | 1011.1 |
| 20260502114404 | 52 | 91 | 1.0 | 4.0 | 0.03 | 0.10 | 0.05 | 94 | 1011.3 |
| 20260502114357 | 53 | 89 | 1.0 | 4.0 | 0.04 | 0.10 | 0.05 | 94 | 1011.4 |
| 20260502113357 | 53 | 68 | 1.0 | 4.0 | 0.04 | 0.10 | 0.05 | 94 | 1011.4 |
| 20260502112855 | 53 | 65 | 0.0 | 3.0 | 0.03 | 0.09 | 0.04 | 93 | 1011.5 |
| 20260502112356 | 53 | 58 | 0.0 | 3.0 | 0.04 | 0.09 | 0.04 | 93 | 1011.6 |
| 20260502111856 | 53 | 83 | 0.0 | 3.0 | 0.04 | 0.09 | 0.04 | 93 | 1011.7 |
| 20260502111845 | 53 | 57 | 0.0 | 3.0 | 0.03 | 0.08 | 0.03 | 93 | 1011.6 |
| 20260502110844 | 53 | 93 | 0.0 | 2.0 | 0.03 | 0.08 | 0.03 | 94 | 1011.6 |
| 20260502110345 | 53 | 44 | 0.0 | 2.0 | 0.03 | 0.08 | 0.03 | 94 | 1011.6 |
| 20260502105833 | 53 | 91 | 0.0 | 1.0 | 0.02 | 0.07 | 0.02 | 94 | 1011.5 |
| 20260502105335 | 53 | 334 | 0.0 | 1.0 | 0.02 | 0.07 | 0.02 | 94 | 1011.5 |
| 20260502105331 | 53 | 58 | 0.0 | 2.0 | 0.02 | 0.07 | 0.02 | 94 | 1011.4 |
| 20260502104328 | 53 | 59 | 0.0 | 2.0 | 0.02 | 0.07 | 0.02 | 94 | 1011.5 |
| 20260502103822 | 53 | 290 | 0.0 | 2.0 | 0.01 | 0.06 | 0.01 | 94 | 1011.5 |
| 20260502103322 | 54 | 60 | 1.0 | 4.0 | 0.01 | 0.06 | 0.01 | 94 | 1011.5 |
| 20260502102818 | 54 | 103 | 1.0 | 4.0 | 0.01 | 0.06 | 0.01 | 94 | 1011.5 |
| 20260502102318 | 53 | 172 | 1.0 | 3.0 | 0.00 | 0.05 | 0.00 | 94 | 1011.5 |
| 20260502101801 | 53 | 261 | 0.0 | 2.0 | 0.00 | 0.05 | 0.00 | 94 | 1011.4 |
| 20260502101302 | 53 | 174 | 0.0 | 2.0 | 0.00 | 0.05 | 0.00 | 94 | 1011.5 |
| 20260502100756 | 53 | 92 | 0.0 | 1.0 | 0.00 | 0.05 | 0.00 | 94 | 1011.5 |
| 20260502100733 | 53 | 56 | 0.0 | 2.0 | 0.00 | 0.05 | 0.00 | 94 | 1011.5 |
| 20260502091533 | 53 | 55 | 0.0 | 0.0 | 0.00 | 0.05 | 0.00 | 95 | 1011.6 |
| 20260502091015 | 53 | 56 | 0.0 | 1.0 | 0.00 | 0.05 | 0.00 | 95 | 1011.6 |
| 20260502091011 | 53 | 55 | 0.0 | 2.0 | 0.00 | 0.05 | 0.00 | 94 | 1011.6 |
| 20260502070629 | 52 | 75 | 0.0 | 0.0 | 0.00 | 0.05 | 0.00 | 97 | 1010.7 |
| 20260502070054 | 52 | 75 | 0.0 | 0.0 | 0.00 | 0.05 | 0.00 | 96 | 1010.7 |
| 20260502065527 | 52 | 75 | 0.0 | 0.0 | 0.00 | 0.05 | 0.00 | 97 | 1010.8 |
| 20260502065023 | 52 | 75 | 0.0 | 0.0 | 0.00 | 0.05 | 0.00 | 97 | 1010.9 |
| 20260502064508 | 52 | 75 | 0.0 | 0.0 | 0.00 | 0.05 | 0.00 | 97 | 1010.9 |
| 20260502063930 | 52 | 75 | 0.0 | 0.0 | 0.00 | 0.05 | 0.00 | 97 | 1010.9 |
| 20260502063425 | 52 | 75 | 0.0 | 0.0 | 0.00 | 0.05 | 0.00 | 97 | 1010.8 |
| 20260502063341 | 52 | 75 | 0.0 | 0.0 | 0.00 | 0.05 | 0.00 | 97 | 1011.0 |
| 20260502062341 | 52 | 75 | 0.0 | 0.0 | 0.00 | 0.05 | 0.00 | 97 | 1011.0 |
| 20260502062337 | 52 | 75 | 0.0 | 0.0 | 0.00 | 0.05 | 0.00 | 97 | 1011.1 |
| 20260502061333 | 52 | 75 | 0.0 | 0.0 | 0.00 | 0.05 | 0.00 | 97 | 1011.2 |
| 20260502060834 | 52 | 75 | 0.0 | 0.0 | 0.00 | 0.05 | 0.00 | 97 | 1011.3 |
| 20260502060311 | 52 | 75 | 0.0 | 0.0 | 0.00 | 0.05 | 0.00 | 97 | 1011.3 |
| 20260502055809 | 52 | 75 | 0.0 | 0.0 | 0.00 | 0.05 | 0.00 | 97 | 1011.2 |
| 20260502055734 | 52 | 75 | 0.0 | 0.0 | 0.00 | 0.05 | 0.00 | 96 | 1011.4 |
| 20260502055340 | 52 | 75 | 0.0 | 0.0 | 0.00 | 0.05 | 0.00 | 96 | 1011.5 |
| 20260502055336 | 52 | 75 | 0.0 | 0.0 | 0.00 | 0.05 | 0.00 | 96 | 1011.4 |
| 20260502053731 | 52 | 75 | 0.0 | 0.0 | 0.00 | 0.05 | 0.00 | 96 | 1011.5 |
| 20260502053233 | 52 | 75 | 0.0 | 0.0 | 0.00 | 0.05 | 0.00 | 96 | 1011.5 |
| 20260502053229 | 52 | 75 | 0.0 | 0.0 | 0.00 | 0.05 | 0.00 | 96 | 1011.5 |
| 20260502052137 | 52 | 75 | 0.0 | 0.0 | 0.00 | 0.05 | 0.00 | 96 | 1011.6 |
| 20260502052109 | 52 | 75 | 0.0 | 0.0 | 0.00 | 0.05 | 0.00 | 96 | 1011.7 |
| 20260502051539 | 52 | 75 | 0.0 | 0.0 | 0.00 | 0.05 | 0.00 | 96 | 1011.9 |
| 20260502050531 | 52 | 75 | 0.0 | 0.0 | 0.00 | 0.05 | 0.00 | 96 | 1011.9 |
| 20260502050023 | 52 | 75 | 0.0 | 0.0 | 0.00 | 0.05 | 0.00 | 96 | 1011.9 |
| 20260502045517 | 52 | 75 | 0.0 | 0.0 | 0.00 | 0.05 | 0.00 | 96 | 1011.9 |
| 20260502045004 | 52 | 75 | 0.0 | 0.0 | 0.00 | 0.05 | 0.00 | 96 | 1011.8 |
| 20260502044504 | 52 | 75 | 0.0 | 0.0 | 0.00 | 0.05 | 0.00 | 96 | 1011.9 |
| 20260502043939 | 52 | 75 | 0.0 | 0.0 | 0.00 | 0.05 | 0.00 | 96 | 1011.9 |
| 20260502043429 | 52 | 75 | 0.0 | 0.0 | 0.00 | 0.05 | 0.00 | 96 | 1012.0 |
| 20260502042929 | 52 | 75 | 0.0 | 0.0 | 0.00 | 0.05 | 0.00 | 96 | 1012.0 |
| 20260502042429 | 52 | 75 | 0.0 | 0.0 | 0.00 | 0.05 | 0.00 | 96 | 1012.0 |
| 20260502041925 | 52 | 75 | 0.0 | 0.0 | 0.00 | 0.05 | 0.00 | 96 | 1012.1 |
| 20260502041417 | 52 | 75 | 0.0 | 0.0 | 0.00 | 0.05 | 0.00 | 96 | 1012.0 |
| 20260502041353 | 52 | 75 | 0.0 | 0.0 | 0.00 | 0.05 | 0.00 | 96 | 1012.0 |
| 20260502040353 | 52 | 75 | 0.0 | 0.0 | 0.00 | 0.05 | 0.00 | 96 | 1011.9 |
| 20260502035827 | 52 | 75 | 0.0 | 0.0 | 0.00 | 0.05 | 0.05 | 96 | 1011.9 |
| 20260502035809 | 52 | 75 | 0.0 | 0.0 | 0.00 | 0.05 | 0.05 | 96 | 1011.9 |
| 20260502034737 | 52 | 75 | 0.0 | 0.0 | 0.00 | 0.05 | 0.05 | 96 | 1012.0 |
| 20260502034231 | 52 | 75 | 0.0 | 0.0 | 0.00 | 0.05 | 0.05 | 95 | 1011.9 |
| 20260502033723 | 52 | 75 | 0.0 | 0.0 | 0.00 | 0.05 | 0.05 | 95 | 1012.0 |
| 20260502033223 | 52 | 75 | 0.0 | 0.0 | 0.00 | 0.05 | 0.05 | 96 | 1012.1 |
| 20260502032719 | 52 | 75 | 0.0 | 0.0 | 0.00 | 0.05 | 0.05 | 96 | 1012.3 |
| 20260502032222 | 52 | 75 | 0.0 | 0.0 | 0.00 | 0.05 | 0.05 | 96 | 1012.4 |
| 20260502032218 | 52 | 75 | 0.0 | 0.0 | 0.00 | 0.05 | 0.05 | 96 | 1012.3 |
| 20260502031154 | 52 | 75 | 0.0 | 0.0 | 0.00 | 0.05 | 0.05 | 96 | 1012.5 |
| 20260502030640 | 52 | 75 | 0.0 | 0.0 | 0.00 | 0.05 | 0.05 | 95 | 1012.7 |
| 20260502030111 | 52 | 75 | 0.0 | 0.0 | 0.00 | 0.05 | 0.05 | 95 | 1012.5 |
| 20260502025555 | 52 | 75 | 0.0 | 0.0 | 0.00 | 0.05 | 0.05 | 95 | 1012.5 |
| 20260502025053 | 52 | 75 | 0.0 | 0.0 | 0.00 | 0.05 | 0.05 | 95 | 1012.5 |
| 20260502025033 | 52 | 75 | 0.0 | 0.0 | 0.00 | 0.05 | 0.05 | 96 | 1012.6 |
| 20260502024025 | 52 | 75 | 0.0 | 0.0 | 0.00 | 0.05 | 0.05 | 95 | 1012.7 |
| 20260502023540 | 52 | 75 | 0.0 | 0.0 | 0.00 | 0.05 | 0.05 | 96 | 1012.7 |
| 20260502023523 | 52 | 75 | 0.0 | 0.0 | 0.00 | 0.05 | 0.05 | 95 | 1012.7 |
| 20260502023020 | 52 | 75 | 0.0 | 0.0 | 0.00 | 0.05 | 0.05 | 96 | 1012.7 |
| 20260502022934 | 52 | 75 | 0.0 | 0.0 | 0.00 | 0.05 | 0.05 | 96 | 1012.7 |
| 20260502021431 | 52 | 75 | 0.0 | 0.0 | 0.00 | 0.05 | 0.05 | 96 | 1012.7 |
| 20260502020909 | 52 | 75 | 0.0 | 0.0 | 0.00 | 0.05 | 0.05 | 96 | 1012.8 |
| 20260502020406 | 52 | 75 | 0.0 | 0.0 | 0.00 | 0.05 | 0.05 | 95 | 1012.8 |
| 20260502020341 | 52 | 75 | 0.0 | 0.0 | 0.00 | 0.05 | 0.05 | 95 | 1012.7 |
| 20260502015330 | 52 | 75 | 0.0 | 0.0 | 0.00 | 0.05 | 0.05 | 95 | 1012.7 |
| 20260502015322 | 52 | 75 | 0.0 | 0.0 | 0.00 | 0.05 | 0.05 | 95 | 1012.5 |
| 20260502014926 | 52 | 75 | 0.0 | 0.0 | 0.00 | 0.05 | 0.05 | 95 | 1012.7 |
| 20260502013819 | 52 | 75 | 0.0 | 0.0 | 0.00 | 0.05 | 0.05 | 95 | 1012.5 |
| 20260502013317 | 53 | 75 | 0.0 | 0.0 | 0.00 | 0.05 | 0.05 | 95 | 1012.5 |
| 20260502013259 | 53 | 75 | 0.0 | 0.0 | 0.00 | 0.05 | 0.05 | 94 | 1012.5 |
| 20260502012243 | 53 | 75 | 0.0 | 0.0 | 0.00 | 0.05 | 0.05 | 95 | 1012.6 |
| 20260502011739 | 53 | 75 | 0.0 | 0.0 | 0.00 | 0.05 | 0.05 | 95 | 1012.5 |
| 20260502011223 | 53 | 75 | 0.0 | 0.0 | 0.00 | 0.05 | 0.05 | 94 | 1012.3 |
| 20260502010716 | 53 | 75 | 0.0 | 0.0 | 0.00 | 0.05 | 0.05 | 94 | 1012.1 |
| 20260502010156 | 53 | 75 | 0.0 | 0.0 | 0.00 | 0.05 | 0.05 | 94 | 1012.3 |
| 20260502005637 | 53 | 75 | 0.0 | 0.0 | 0.00 | 0.05 | 0.05 | 93 | 1012.1 |
| 20260502005132 | 53 | 75 | 0.0 | 0.0 | 0.00 | 0.05 | 0.05 | 94 | 1012.3 |
| 20260502004629 | 53 | 75 | 0.0 | 0.0 | 0.00 | 0.05 | 0.05 | 94 | 1012.4 |
| 20260502004059 | 53 | 75 | 0.0 | 0.0 | 0.00 | 0.05 | 0.05 | 94 | 1012.1 |
| 20260502003543 | 53 | 75 | 0.0 | 0.0 | 0.00 | 0.05 | 0.05 | 94 | 1012.0 |
| 20260502003524 | 53 | 75 | 0.0 | 0.0 | 0.00 | 0.05 | 0.05 | 94 | 1011.9 |
| 20260502002456 | 53 | 75 | 0.0 | 0.0 | 0.00 | 0.05 | 0.05 | 94 | 1011.9 |
| 20260502002445 | 53 | 75 | 0.0 | 0.0 | 0.00 | 0.05 | 0.05 | 93 | 1011.8 |
| 20260502001437 | 53 | 75 | 0.0 | 0.0 | 0.00 | 0.05 | 0.05 | 93 | 1011.8 |
| 20260502000927 | 53 | 75 | 0.0 | 0.0 | 0.00 | 0.05 | 0.05 | 93 | 1011.7 |
| 20260502000424 | 53 | 75 | 0.0 | 0.0 | 0.00 | 0.05 | 0.05 | 93 | 1011.7 |
| 20260501235902 | 53 | 75 | 0.0 | 0.0 | 0.00 | 0.05 | 0.05 | 92 | 1011.8 |
| 20260501235858 | 53 | 75 | 0.0 | 0.0 | 0.00 | 0.05 | 0.05 | 93 | 1011.9 |
| 20260501234832 | 53 | 75 | 0.0 | 0.0 | 0.00 | 0.05 | 0.05 | 91 | 1011.9 |
| 20260501234307 | 54 | 75 | 0.0 | 0.0 | 0.00 | 0.05 | 0.05 | 91 | 1012.0 |
| 20260501233807 | 54 | 75 | 0.0 | 0.0 | 0.00 | 0.05 | 0.05 | 91 | 1012.0 |